Content
SEND FEEDBACK

Daily
Averages
Monthly
Summary
United States of America

ANN ARBOR, MICHIGAN


Home > North America > United States > Michigan
Elevation: 759 feet     Latitude: 42 17N     Longitude: 083 43W

WEATHER
 
SELECT A DAY
Number of Records: 206,981;   Date Range: 1/1/95 - 10/20/14
 
SHARE

PRINT THIS DATA

[ ← Previous Day ]
WEATHER ALMANAC - JANUARY 21, 2013
[ Next Day → ]
[ °C ]   °F
Weather ElementAverageHighLow
Temperature13.7 °F18 °F (5:53 am)3.2 °F (11:44 pm)
Dewpoint7.1 °F12.9 °F (8:53 am)-2.9 °F (6:53 pm)
Humidity74.9 %88 % (10:53 am)59 % (1:53 am)
Barometer30.01 in30.14 in (11:53 pm)29.93 in (1:09 pm)
Wind Speed9.7 mph20.7 mph (8:58 am)
Wind Gust27.6 mph (4:53 pm)
Weather ElementAverage
Visibility4.2 mi
Wind DirectionWNW (283.5 °)

Weather ElementTotal
Precipitation0.04 in
Heating Degree Days54.4 (Base 65)
Averaged from 75 records on January 21, 2013
WEATHER CONDITIONS BREAKOUT
WIND DIRECTION BREAKOUT
WEATHER BY HOUR - JANUARY 21, 2013
[ °C ]   °F
Local TimeTemperatureDewpointHumidityBarometerVisibilityWind DirectionWind SpeedGust SpeedPrecipitationEventsConditions
1:53 AM17.1 °F5.0 °F59 %30.08 in10.0 miWNW (300°)4.6 mphOvercast
2:53 AM16.0 °F7.0 °F68 %30.12 in10.0 miCalmOvercast
3:53 AM16.0 °F8.1 °F71 %30.09 in10.0 miCalmOvercast
4:15 AM17.6 °F8.6 °F68 %30.03 in10.0 miSW (230°)5.8 mphOvercast
4:53 AM17.1 °F9.0 °F71 %30.06 in10.0 miSW (230°)4.6 mphOvercast
5:08 AM17.6 °F8.6 °F68 %30.01 in10.0 miSW (230°)5.8 mphOvercast
5:53 AM18.0 °F10.0 °F71 %30.04 in10.0 miSW (230°)9.2 mphOvercast
6:19 AM17.6 °F10.4 °F73 %29.99 in10.0 miSW (230°)8.1 mphOvercast
6:53 AM18.0 °F10.9 °F74 %30.04 in8.0 miWSW (240°)10.4 mph0.00 inSnowLight Snow
7:18 AM17.6 °F10.4 °F73 %29.98 in6.0 miWSW (240°)12.7 mph0.00 inSnowLight Snow
7:53 AM18.0 °F10.9 °F74 %30.02 in6.0 miWSW (250°)11.5 mph0.00 inSnowLight Snow
8:28 AM17.6 °F12.2 °F79 %29.97 in4.0 miWSW (250°)6.9 mph0.00 inSnowLight Snow
8:33 AM17.6 °F12.2 °F79 %29.98 in1.8 miWest (260°)10.4 mph0.00 inSnowLight Snow
8:37 AM17.6 °F12.2 °F79 %29.97 in0.8 miWSW (250°)12.7 mph0.00 inSnowLight Snow
8:53 AM17.1 °F12.9 °F84 %30.02 in0.5 miWest (260°)15.0 mph0.00 inFog-SnowLight Snow
8:58 AM17.6 °F12.2 °F79 %29.98 in0.8 miWest (270°)20.7 mph26.5 mph0.00 inSnowLight Snow
9:21 AM15.8 °F12.2 °F86 %29.98 in1.0 miWNW (290°)8.1 mph0.00 inSnowLight Snow
9:26 AM15.8 °F12.2 °F86 %29.97 in2.0 miWNW (290°)5.8 mph0.00 inSnowLight Snow
9:34 AM15.8 °F10.4 °F79 %29.98 in5.0 miWest (270°)8.1 mph0.00 inSnowLight Snow
9:43 AM15.8 °F12.2 °F86 %29.98 in1.8 miWNW (290°)5.8 mph0.00 inSnowLight Snow
9:49 AM15.8 °F12.2 °F86 %29.98 in0.8 miWest (280°)5.8 mph0.00 inSnowLight Snow
9:53 AM16.0 °F12.0 °F84 %30.02 in0.8 miWest (280°)6.9 mph0.00 inSnowLight Snow
9:59 AM17.6 °F12.2 °F79 %29.98 in1.5 miWest (270°)6.9 mph0.00 inSnowLight Snow
10:06 AM15.8 °F10.4 °F79 %29.98 in0.8 miWest (280°)9.2 mph0.00 inSnowLight Snow
10:16 AM15.8 °F10.4 °F79 %29.98 in1.5 miWNW (290°)6.9 mph0.00 inSnowLight Snow
10:23 AM17.6 °F12.2 °F79 %29.98 in3.0 miWest (270°)8.1 mph0.00 inSnowLight Snow
10:30 AM17.6 °F12.2 °F79 %29.97 in1.8 miWest (260°)9.2 mph0.00 inSnowLight Snow
10:53 AM16.0 °F12.9 °F88 %30.02 in0.2 miNW (320°)5.8 mph0.00 inFog-SnowSnow
11:00 AM15.8 °F12.2 °F86 %29.97 in0.5 miNNW (330°)6.9 mph0.00 inFog-SnowSnow
11:16 AM15.8 °F10.4 °F79 %29.97 in1.0 miNW (310°)9.2 mph0.01 inSnowLight Snow
11:35 AM15.8 °F10.4 °F79 %29.96 in1.5 miNW (310°)9.2 mph0.01 inSnowLight Snow
11:43 AM15.8 °F10.4 °F79 %29.96 in2.5 miNNW (330°)6.9 mph0.01 inSnowLight Snow
11:53 AM15.1 °F9.0 °F77 %30.00 in4.0 miNW (320°)8.1 mph0.01 inSnowLight Snow
12:03 PM15.8 °F8.6 °F73 %29.95 in1.8 miWNW (300°)8.1 mph0.00 inSnowLight Snow
12:08 PM15.8 °F10.4 °F79 %29.95 in0.8 miWNW (300°)9.2 mph0.00 inSnowLight Snow
12:26 PM15.8 °F10.4 °F79 %29.95 in0.5 miNNW (330°)12.7 mph0.00 inFog-SnowSnow
12:39 PM15.8 °F8.6 °F73 %29.94 in1.0 miNW (320°)10.4 mph0.00 inSnowLight Snow
12:44 PM15.8 °F8.6 °F73 %29.94 in2.0 miNW (320°)9.2 mph0.00 inSnowLight Snow
12:51 PM15.8 °F8.6 °F73 %29.94 in5.0 miWNW (300°)10.4 mph0.00 inHaze
12:53 PM16.0 °F9.0 °F74 %29.99 in6.0 miWNW (300°)9.2 mph0.00 inHaze
1:09 PM17.6 °F8.6 °F68 %29.93 in7.0 miNW (310°)11.5 mph19.6 mphOvercast
1:29 PM15.8 °F8.6 °F73 %29.93 in2.5 miNNW (330°)11.5 mph0.00 inSnowLight Snow
1:38 PM15.8 °F8.6 °F73 %29.93 in1.5 miNW (320°)11.5 mph0.00 inSnowLight Snow
1:53 PM15.1 °F8.1 °F74 %29.98 in1.5 miNW (320°)8.1 mph0.00 inSnowLight Snow
2:06 PM14.0 °F8.6 °F79 %29.94 in0.8 miNW (320°)13.8 mph0.00 inSnowLight Snow
2:14 PM14.0 °F6.8 °F73 %29.94 in1.5 miNW (310°)11.5 mph0.00 inSnowLight Snow
2:31 PM14.0 °F8.6 °F79 %29.95 in0.8 miNW (310°)9.2 mph19.6 mph0.00 inSnowLight Snow
2:41 PM15.8 °F8.6 °F73 %29.95 in1.8 miWNW (300°)10.4 mph0.00 inSnowLight Snow
2:43 PM15.8 °F6.8 °F68 %29.95 in4.0 miWNW (300°)11.5 mph0.00 inHaze
2:50 PM14.0 °F6.8 °F73 %29.95 in1.8 miNW (310°)11.5 mph0.00 inSnowLight Snow
2:53 PM14.0 °F7.0 °F74 %30.00 in1.0 miNW (320°)12.7 mph0.00 inSnowLight Snow
3:02 PM14.0 °F8.6 °F79 %29.96 in0.8 miNNW (330°)11.5 mph0.00 inSnowLight Snow
3:10 PM14.0 °F6.8 °F73 %29.96 in1.8 miNW (310°)13.8 mph18.4 mph0.00 inSnowLight Snow
3:12 PM14.0 °F5.0 °F67 %29.96 in3.0 miNW (310°)12.7 mph18.4 mph0.00 inSnowLight Snow
3:37 PM12.2 °F3.2 °F67 %29.97 in8.0 miWNW (300°)13.8 mph19.6 mph0.00 inOvercast
3:53 PM12.9 °F3.9 °F67 %30.03 in7.0 miWNW (300°)15.0 mph25.3 mph0.00 inOvercast
4:53 PM10.9 °F1.9 °F67 %30.05 in5.0 miWNW (300°)18.4 mph27.6 mph0.00 inSnowLight Snow
5:02 PM10.4 °F3.2 °F73 %30.00 in1.5 miWNW (290°)16.1 mph24.2 mph0.00 inSnowLight Snow
5:12 PM10.4 °F1.4 °F67 %30.00 in4.0 miWNW (290°)17.3 mph25.3 mph0.00 inSnowLight Snow
5:26 PM10.4 °F-0.4 °F62 %30.01 in10.0 miWest (280°)19.6 mph23.0 mph0.00 inScattered Clouds
5:53 PM10.0 °F0.0 °F64 %30.06 in10.0 miNW (310°)10.4 mph0.00 inMostly Cloudy
6:53 PM8.1 °F-2.9 °F61 %30.08 in10.0 miWNW (290°)11.5 mph20.7 mph0.00 inClear
7:53 PM7.0 °F-2.0 °F67 %30.10 in10.0 miWNW (300°)9.2 mphScattered Clouds
8:15 PM6.8 °F-0.4 °F72 %30.05 in8.0 miWNW (290°)9.2 mphMostly Cloudy
8:43 PM6.8 °F-0.4 °F72 %30.05 in6.0 miWNW (290°)9.2 mph0.00 inSnowLight Snow
8:53 PM7.0 °F1.0 °F77 %30.11 in4.0 miWNW (290°)8.1 mph0.00 inSnowLight Snow
9:04 PM6.8 °F1.4 °F79 %30.06 in2.5 miWNW (300°)6.9 mph0.00 inSnowLight Snow
9:15 PM6.8 °F1.4 °F79 %30.06 in3.0 miWNW (300°)6.9 mph0.00 inSnowLight Snow
9:53 PM5.0 °F-2.0 °F73 %30.12 in9.0 miWNW (300°)8.1 mph0.00 inOvercast
10:08 PM5.0 °F-0.4 °F78 %30.07 in4.0 miWNW (300°)8.1 mph0.00 inSnowLight Snow
10:53 PM5.0 °F-0.9 °F76 %30.13 in10.0 miWNW (300°)8.1 mph0.00 inOvercast
11:25 PM5.0 °F-0.4 °F78 %30.09 in2.5 miWNW (300°)6.9 mph0.00 inSnowLight Snow
11:27 PM5.0 °F-0.4 °F78 %30.09 in3.0 miWNW (300°)9.2 mph0.00 inSnowLight Snow
11:44 PM3.2 °F-2.2 °F78 %30.09 in6.0 miWNW (300°)8.1 mph0.00 inHaze
11:53 PM3.9 °F-2.0 °F76 %30.14 in9.0 miWNW (300°)10.4 mph0.00 inOvercast
Hourly data recorded from KARB, located miles away from Ann Arbor, Michigan







STORIES FROM OUR PARTNERS